Location: Newark
(63.1158°N, 8.1461°E)
Time: 14:33:29
(UTC+00:00)

Envisat - Pass Details

Date: 16 December 2019
Orbit: 764 x 766 km, 98.1° (Epoch: 23 January)

Event Time Altitude Azimuth Distance (km) Brightness Sun altitude
Rises 07:30:32 0° 19° (NNE) 3,251 6.0 -7.7°
Reaches altitude 10° 07:32:52 10° 15° (NNE) 2,321 5.3 -7.4°
Maximum altitude 07:37:53 58° 298° (WNW) 894 3.1 -7.0°
Drops below altitude 10° 07:42:52 10° 220° (SW) 2,306 5.5 -6.6°
Sets 07:45:11 0° 217° (SW) 3,229 6.3 -6.4°
